Regional Weather Roundup
Issued by NWS

Home | Current Version | Previous Version | Text Only | Print | Product List | Glossary Off
Versions: 1 2 3 4 5 6 7 8 9 10 11 12 13 14 15 16 17 18 19 20 21 22 23 24 25 26 27 28 29 30 31 32 33 34 35 36 37 38 39 40 41 42 43 44 45 46 47 48 49 50

697
ASUS43 KFSD 022310
RWRSD

WEATHER ROUNDUP FOR SOUTH DAKOTA
NATIONAL WEATHER SERVICE SIOUX FALLS SD
500 PM CST FRI DEC 02 2016

NOTE: "FAIR" INDICATES FEW OR NO CLOUDS BELOW 12,000 FEET WITH NO
SIGNIFICANT WEATHER AND/OR OBSTRUCTIONS TO VISIBILITY.


SDZ001>005-009-010-012>017-030000-
NORTHWEST AND NORTH CENTRAL SOUTH DAKOTA

CITY           SKY/WX    TMP DP  RH WIND       PRES   REMARKS
BUFFALO          N/A     33  28  81 W8        30.10S WCI  26
FAITH            N/A     25  24  96 S8        30.19S WCI  16
MOBRIDGE       CLOUDY    29  23  78 E7        30.22S WCI  22
$$

SDZ012>016-024>037-041>051-057-063-072>074-030000-
SOUTHWEST AND SOUTH CENTRAL SOUTH DAKOTA

CITY           SKY/WX    TMP DP  RH WIND       PRES   REMARKS
RAPID CTY ARPT PTCLDY    34  25  69 E7        30.18F WCI  28
PIERRE         CLOUDY    31  24  75 CALM      30.25R
CUSTER         PTCLDY    30  13  49 SW5       30.12S WCI  25
ELLSWORTH AFB  CLOUDY    35  28  76 E5        30.18S
PHILIP         CLEAR     32  26  78 CALM      30.22F
PINE RIDGE     CLEAR     29  24  82 NE7       30.19S WCI  22
SPEARFISH      FAIR      30  21  69 S6        30.16S WCI  24
WINNER         CLOUDY    35  26  69 CALM      30.25F
$$

SDZ004>011-016>023-039-040-030000-
NORTHEAST SOUTH DAKOTA

CITY           SKY/WX    TMP DP  RH WIND       PRES   REMARKS
ABERDEEN       CLOUDY    28  18  66 NW10      30.30R WCI  19
WATERTOWN      LGT SNOW  24  19  81 NW10      30.26S WCI  14
BROOKINGS      CLOUDY    26  20  77 NW9       30.27S WCI  17
SISSETON         N/A     27  20  75 NW7       30.29R WCI  19
$$

SDZ017-020-022-023-036>040-048>070-030000-
SOUTHEAST SOUTH DAKOTA

CITY           SKY/WX    TMP DP  RH WIND       PRES   REMARKS
SIOUX FALLS    CLOUDY    31  26  82 NW10      30.29S WCI  22
HURON          MIX PCPN  30  26  85 NW5       30.30S WCI  25
CHAMBERLAIN    CLOUDY    32  31  94 CALM      30.27F
MITCHELL       CLOUDY    32  26  78 NW5       30.31S WCI  27
YANKTON        CLOUDY    34  27  75 NW6       30.30R WCI  29
$$

ABBREVIATIONS USED IN REMARKS
   TC - TEMPERATURE IN CELSIUS
  WCI - WIND CHILL INDEX
   HX - HEAT INDEX
  VSB - VISIBILITY





USA.gov is the U.S. government's official web portal to all federal, state and local government web resources and services.